Date String (YYYY-MM-DD hh:mm:ss) UTC,Instrument flags,Ambient pressure (hPa),Sample flow (lpm),Bypass flow (lpm),Sample temperature (°C),Ambient temperature (°C),ASC tube jacket temperature (°C),LED temperature (°C),Box temperature (°C),Sample RH (%),Span deviation,Mass concentration (μg/m³),Mass concentration (μg/m³),Mass concentration (μg/m³)
DateTimeUTC,F1_M11,P_M11,Q1_M11,Q2_M11,T1_M11,T2_M11,T3_M11,T4_M11,T5_M11,U1_M11,ZSPAN_M11,X0_M11,X2_M11,X1_M11
2022-05-14 20:00:00,,0826.1,5.01,0.00,29.4,27.9,00.0,38.2,31.2,08.7,0000.0,0007.14,0003.35,0002.45
2022-05-14 20:01:00,,0826.1,5.00,0.00,29.4,28.0,00.0,38.2,31.2,08.7,0000.0,0007.24,0003.38,0002.53
2022-05-14 20:02:00,,0826.0,5.00,0.00,29.4,28.2,00.0,38.2,31.3,08.7,0000.0,0007.43,0003.45,0002.60
2022-05-14 20:03:00,,0826.0,5.00,0.00,29.5,28.3,00.0,38.3,31.3,08.6,0000.0,0007.57,0003.52,0002.65
2022-05-14 20:04:00,,0826.0,5.00,0.00,29.5,28.4,00.0,38.3,31.4,08.6,0000.0,0007.45,0003.53,0002.69
2022-05-14 20:05:00,,0826.1,5.01,0.00,29.5,28.5,00.0,38.3,31.4,08.6,0000.0,0007.12,0003.55,0002.73
2022-05-14 20:06:00,,0826.0,5.00,0.00,29.6,28.6,00.0,38.3,31.4,08.8,0000.0,0007.12,0003.56,0002.74
2022-05-14 20:07:00,,0826.1,4.99,0.00,29.6,28.6,00.0,38.3,31.5,09.0,0000.0,0007.23,0003.56,0002.75
2022-05-14 20:08:00,,0826.0,5.01,0.00,29.6,28.7,00.0,38.4,31.5,09.2,0000.0,0007.27,0003.59,0002.76
2022-05-14 20:09:00,,0826.1,5.01,0.00,29.6,27.3,00.0,38.4,31.2,09.7,0000.0,0007.02,0003.55,0002.76
2022-05-14 20:10:00,,0826.1,5.00,0.00,29.5,25.4,00.0,38.4,30.8,08.9,0000.0,0006.91,0003.57,0002.76
2022-05-14 20:11:00,,0826.1,5.00,0.00,29.4,25.4,00.0,38.3,30.8,09.3,0000.0,0007.02,0003.60,0002.78
2022-05-14 20:12:00,,0826.0,4.99,0.00,29.3,25.9,00.0,38.3,30.9,09.2,0000.0,0007.10,0003.61,0002.78
2022-05-14 20:13:00,,0826.1,5.00,0.00,29.3,26.3,00.0,38.2,30.9,08.9,0000.0,0007.02,0003.61,0002.76
2022-05-14 20:14:00,,0826.0,5.00,0.00,29.3,26.8,00.0,38.2,31.0,08.8,0000.0,0007.05,0003.61,0002.75
2022-05-14 20:15:00,,0826.0,4.99,0.00,29.3,27.2,00.0,38.2,31.1,08.7,0000.0,0006.98,0003.60,0002.77
2022-05-14 20:16:00,,0826.1,4.99,0.00,29.3,27.5,00.0,38.2,31.1,09.0,0000.0,0006.97,0003.61,0002.77
2022-05-14 20:17:00,,0826.1,5.01,0.00,29.4,27.7,00.0,38.2,31.2,08.7,0000.0,0007.08,0003.63,0002.78
2022-05-14 20:18:00,,0826.0,5.00,0.00,29.4,28.0,00.0,38.2,31.2,08.7,0000.0,0007.23,0003.66,0002.79
2022-05-14 20:19:00,,0826.0,5.01,0.00,29.4,28.2,00.0,38.2,31.3,08.8,0000.0,0007.30,0003.68,0002.79
2022-05-14 20:20:00,,0826.0,4.99,0.00,29.5,28.3,00.0,38.3,31.4,08.9,0000.0,0007.41,0003.74,0002.81
2022-05-14 20:21:00,,0826.0,5.01,0.00,29.5,28.5,00.0,38.3,31.4,08.7,0000.0,0007.44,0003.75,0002.82
2022-05-14 20:22:00,,0826.0,5.00,0.00,29.5,28.6,00.0,38.3,31.4,09.0,0000.0,0007.59,0003.79,0002.84
2022-05-14 20:23:00,,0826.0,5.00,0.00,29.6,28.7,00.0,38.3,31.5,08.7,0000.0,0007.49,0003.77,0002.86
2022-05-14 20:24:00,,0826.0,5.00,0.00,29.6,28.8,00.0,38.3,31.5,08.6,0000.0,0007.55,0003.79,0002.90
2022-05-14 20:25:00,,0825.9,5.00,0.00,29.7,28.4,00.0,38.4,31.5,08.7,0000.0,0007.54,0003.80,0002.93
2022-05-14 20:26:00,,0825.9,5.01,0.00,29.6,26.2,00.0,38.4,31.0,08.7,0000.0,0007.55,0003.82,0002.96
2022-05-14 20:27:00,,0825.9,5.00,0.00,29.4,25.2,00.0,38.3,30.8,09.0,0000.0,0007.69,0003.87,0002.99
2022-05-14 20:28:00,,0825.8,5.00,0.00,29.4,25.6,00.0,38.3,30.9,09.3,0000.0,0007.77,0003.90,0003.02
2022-05-14 20:29:00,,0825.8,4.99,0.00,29.3,26.1,00.0,38.3,30.9,08.8,0000.0,0008.53,0003.94,0003.05
2022-05-14 20:30:00,,0825.8,5.01,0.00,29.3,26.6,00.0,38.2,31.0,08.8,0000.0,0008.66,0003.96,0003.08
2022-05-14 20:31:00,,0825.8,5.00,0.00,29.3,27.0,00.0,38.2,31.0,08.9,0000.0,0008.64,0003.95,0003.10
2022-05-14 20:32:00,,0825.8,5.00,0.00,29.3,27.4,00.0,38.2,31.1,08.7,0000.0,0009.29,0003.96,0003.12
2022-05-14 20:33:00,,0825.8,5.00,0.00,29.4,27.7,00.0,38.2,31.1,09.0,0000.0,0009.29,0003.98,0003.13
2022-05-14 20:34:00,,0825.7,5.00,0.00,29.4,27.9,00.0,38.2,31.2,09.0,0000.0,0009.31,0004.01,0003.15
2022-05-14 20:35:00,,0825.9,5.00,0.00,29.4,28.2,00.0,38.2,31.3,08.6,0000.0,0009.42,0004.06,0003.16
2022-05-14 20:36:00,,0825.9,5.01,0.00,29.5,28.3,00.0,38.3,31.4,08.5,0000.0,0009.30,0004.02,0003.15
2022-05-14 20:37:00,,0825.9,4.99,0.00,29.5,28.5,00.0,38.3,31.4,08.5,0000.0,0009.44,0004.00,0003.13
2022-05-14 20:38:00,,0825.9,4.99,0.00,29.6,28.6,00.0,38.3,31.5,08.6,0000.0,0010.06,0003.99,0003.13
2022-05-14 20:39:00,,0825.8,5.01,0.00,29.6,28.7,00.0,38.3,31.5,08.8,0000.0,0009.97,0003.95,0003.11
2022-05-14 20:40:00,,0825.7,4.99,0.00,29.7,28.8,00.0,38.4,31.6,09.4,0000.0,0009.31,0003.91,0003.09
2022-05-14 20:41:00,,0825.7,5.01,0.00,29.6,27.3,00.0,38.4,31.2,09.3,0000.0,0009.00,0003.88,0003.08
2022-05-14 20:42:00,,0825.7,5.00,0.00,29.5,25.4,00.0,38.4,30.8,09.9,0000.0,0009.68,0003.89,0003.06
2022-05-14 20:43:00,,0825.7,4.98,0.00,29.4,25.4,00.0,38.3,30.8,08.9,0000.0,0009.77,0003.92,0003.05
2022-05-14 20:44:00,,0825.7,5.00,0.00,29.3,25.8,00.0,38.3,30.9,08.9,0000.0,0009.88,0003.94,0003.04
2022-05-14 20:45:00,,0825.6,5.01,0.00,29.3,26.3,00.0,38.3,30.9,08.8,0000.0,0009.81,0003.89,0002.99
2022-05-14 20:46:00,,0825.7,5.00,0.00,29.3,26.8,00.0,38.2,31.0,09.0,0000.0,0009.79,0003.86,0002.96
2022-05-14 20:47:00,,0825.8,5.00,0.00,29.3,27.2,00.0,38.2,31.1,08.8,0000.0,0009.83,0003.86,0002.95
2022-05-14 20:48:00,,0825.6,5.00,0.00,29.3,27.5,00.0,38.2,31.2,08.9,0000.0,0010.27,0003.86,0002.95
2022-05-14 20:49:00,,0825.6,5.00,0.00,29.4,27.8,00.0,38.2,31.2,09.8,0000.0,0009.52,0003.81,0002.94
2022-05-14 20:50:00,,0825.7,5.00,0.00,29.4,28.0,00.0,38.2,31.3,09.5,0000.0,0009.50,0003.81,0002.92
2022-05-14 20:51:00,,0825.6,4.99,0.00,29.5,28.2,00.0,38.3,31.3,09.1,0000.0,0009.44,0003.80,0002.92
2022-05-14 20:52:00,,0825.6,5.01,0.00,29.5,28.4,00.0,38.3,31.4,09.9,0000.0,0009.44,0003.80,0002.90
2022-05-14 20:53:00,,0825.6,5.00,0.00,29.5,28.6,00.0,38.3,31.5,09.1,0000.0,0008.76,0003.74,0002.89
2022-05-14 20:54:00,,0825.6,4.99,0.00,29.6,28.7,00.0,38.3,31.5,09.1,0000.0,0007.97,0003.70,0002.89
2022-05-14 20:55:00,,0825.6,5.01,0.00,29.6,28.8,00.0,38.4,31.5,08.9,0000.0,0007.74,0003.66,0002.87
2022-05-14 20:56:00,,0825.6,5.02,0.00,29.7,28.3,00.0,38.4,31.4,08.6,0000.0,0007.89,0003.71,0002.88
2022-05-14 20:57:00,,0825.5,5.00,0.00,29.6,26.1,00.0,38.4,31.0,08.6,0000.0,0007.86,0003.71,0002.86
2022-05-14 20:58:00,,0825.6,5.00,0.00,29.4,25.2,00.0,38.3,30.8,08.9,0000.0,0007.77,0003.69,0002.85
2022-05-14 20:59:00,,0825.5,4.99,0.00,29.4,25.7,00.0,38.3,30.9,08.7,0000.0,0007.39,0003.70,0002.83
